DLH1HH EDDF-LIML

Flight info

Callsign DLH1HH
Flight time 0h 56m
Altitude 31000
Route ANEKI2L/18 ANEKI Y163 NATOR DCT TRA DCT RIPUS DCT GERSA DCT SOSON DCT ODINA
Aircraft A319/M-SADE2E3FGIJ1LORWXYZ/HB1

Departure

Time 2026-05-07 06:54
Airport Frankfurt Main Airport (EDDF)

Arrival

Time 2026-05-07 07:50
Airport Milano Linate Airport (LIML)
Time Latitude Longitude Altitude Speed Heading
2026-05-07 06:33 50.04039 8.55548 349 ft 0 kts 160°
2026-05-07 06:49 50.04033 8.55552 349 ft 3 kts 160°
2026-05-07 06:50 50.03991 8.55576 348 ft 9 kts 160°
2026-05-07 06:50 50.03941 8.55503 347 ft 12 kts 250°
2026-05-07 06:50 50.03907 8.55354 346 ft 16 kts 250°
2026-05-07 06:50 50.03864 8.55173 345 ft 19 kts 250°
2026-05-07 06:51 50.03812 8.54955 341 ft 23 kts 250°
2026-05-07 06:51 50.03753 8.54712 337 ft 25 kts 250°
2026-05-07 06:51 50.03692 8.54457 335 ft 25 kts 250°
2026-05-07 06:51 50.03631 8.54201 337 ft 24 kts 248°
2026-05-07 06:52 50.03572 8.53956 339 ft 24 kts 250°
2026-05-07 06:52 50.03515 8.53716 341 ft 23 kts 250°
2026-05-07 06:52 50.03459 8.53484 340 ft 23 kts 250°
2026-05-07 06:52 50.03400 8.53237 336 ft 24 kts 250°
2026-05-07 06:53 50.03338 8.52978 335 ft 24 kts 250°
2026-05-07 06:53 50.03281 8.52736 334 ft 23 kts 249°
2026-05-07 06:53 50.03158 8.52595 331 ft 24 kts 181°
2026-05-07 06:53 50.02841 8.52598 325 ft 83 kts 180°
2026-05-07 06:54 50.01995 8.52612 382 ft 148 kts 180°
2026-05-07 06:54 50.00921 8.52635 948 ft 162 kts 182°
2026-05-07 06:54 49.99777 8.52682 1640 ft 174 kts 181°
2026-05-07 06:54 49.98577 8.52767 2455 ft 179 kts 180°
2026-05-07 06:55 49.97284 8.52862 3064 ft 195 kts 180°
2026-05-07 06:55 49.95868 8.52967 3683 ft 213 kts 179°
2026-05-07 06:55 49.94334 8.53078 4302 ft 230 kts 179°
2026-05-07 06:55 49.92666 8.53192 4886 ft 252 kts 179°
2026-05-07 06:56 49.90946 8.53309 5915 ft 253 kts 179°
2026-05-07 06:56 49.89203 8.53432 6992 ft 254 kts 180°
2026-05-07 06:56 49.87443 8.53554 7988 ft 257 kts 180°
2026-05-07 06:56 49.85657 8.53674 8970 ft 260 kts 180°
2026-05-07 06:57 49.83859 8.53793 9942 ft 263 kts 180°
2026-05-07 06:57 49.82041 8.53910 10905 ft 266 kts 180°
2026-05-07 06:57 49.80197 8.54029 11833 ft 270 kts 180°
2026-05-07 06:57 49.78334 8.54102 12730 ft 273 kts 183°
2026-05-07 06:58 49.76448 8.53953 13494 ft 281 kts 187°
2026-05-07 06:58 49.74431 8.53691 14023 ft 299 kts 187°
2026-05-07 06:58 49.72318 8.53402 14485 ft 317 kts 187°
2026-05-07 06:58 49.70060 8.53098 14915 ft 335 kts 186°
2026-05-07 06:59 49.67702 8.52782 15430 ft 348 kts 187°
2026-05-07 06:59 49.65252 8.52459 16188 ft 354 kts 187°
2026-05-07 06:59 49.62828 8.52140 16967 ft 357 kts 187°
2026-05-07 06:59 49.60351 8.51811 17713 ft 361 kts 186°
2026-05-07 07:00 49.57840 8.51481 18440 ft 365 kts 186°
2026-05-07 07:00 49.55304 8.51148 19166 ft 369 kts 186°
2026-05-07 07:00 49.52719 8.50808 19899 ft 373 kts 186°
2026-05-07 07:00 49.50135 8.50469 20615 ft 377 kts 186°
2026-05-07 07:01 49.47507 8.50125 21304 ft 381 kts 186°
2026-05-07 07:01 49.44864 8.49778 21983 ft 385 kts 186°
2026-05-07 07:01 49.42210 8.49431 22645 ft 389 kts 186°
2026-05-07 07:01 49.39510 8.49076 23308 ft 392 kts 186°
2026-05-07 07:02 49.36798 8.48722 23945 ft 396 kts 186°
2026-05-07 07:02 49.34067 8.48365 24711 ft 396 kts 186°
2026-05-07 07:02 49.31335 8.48008 25562 ft 393 kts 186°
2026-05-07 07:02 49.28624 8.47656 26363 ft 392 kts 186°
2026-05-07 07:03 49.25923 8.47305 27113 ft 391 kts 185°
2026-05-07 07:03 49.23239 8.46957 27832 ft 390 kts 185°
2026-05-07 07:03 49.20517 8.46603 28543 ft 390 kts 185°
2026-05-07 07:03 49.17834 8.46253 29232 ft 389 kts 185°
2026-05-07 07:04 49.15156 8.45904 29853 ft 390 kts 185°
2026-05-07 07:04 49.12459 8.45554 30378 ft 393 kts 185°
2026-05-07 07:04 49.09719 8.45200 30853 ft 396 kts 185°
2026-05-07 07:04 49.06986 8.44761 30988 ft 398 kts 188°
2026-05-07 07:05 49.01534 8.43122 30990 ft 399 kts 193°
2026-05-07 07:05 48.96148 8.41228 30991 ft 399 kts 193°
2026-05-07 07:06 48.90735 8.39335 30987 ft 399 kts 193°
2026-05-07 07:06 48.85323 8.37453 30988 ft 399 kts 193°
2026-05-07 07:07 48.79914 8.35581 30984 ft 398 kts 193°
2026-05-07 07:07 48.74533 8.33655 30984 ft 398 kts 193°
2026-05-07 07:08 48.69168 8.31686 30990 ft 398 kts 193°
2026-05-07 07:08 48.63808 8.29728 30989 ft 398 kts 193°
2026-05-07 07:09 48.58456 8.27779 30984 ft 398 kts 193°
2026-05-07 07:09 48.53083 8.25893 30981 ft 397 kts 189°
2026-05-07 07:10 48.47602 8.25164 30976 ft 396 kts 178°
2026-05-07 07:10 48.42153 8.25996 30978 ft 395 kts 169°
2026-05-07 07:11 48.36736 8.27349 30980 ft 395 kts 169°
2026-05-07 07:11 48.31323 8.28685 30983 ft 395 kts 169°
2026-05-07 07:12 48.25915 8.29994 30984 ft 395 kts 169°
2026-05-07 07:12 48.20494 8.31299 30984 ft 394 kts 169°
2026-05-07 07:13 48.15103 8.32597 30989 ft 394 kts 169°
2026-05-07 07:13 48.09700 8.33912 30979 ft 393 kts 169°
2026-05-07 07:14 48.04346 8.35210 30974 ft 393 kts 169°
2026-05-07 07:14 47.98951 8.36514 30969 ft 394 kts 169°
2026-05-07 07:15 47.93557 8.37817 30978 ft 394 kts 169°
2026-05-07 07:15 47.88135 8.39121 30986 ft 393 kts 169°
2026-05-07 07:16 47.82768 8.40408 30988 ft 394 kts 170°
2026-05-07 07:16 47.77358 8.41702 30988 ft 394 kts 170°
2026-05-07 07:17 47.71975 8.42987 31003 ft 394 kts 170°
2026-05-07 07:17 47.66548 8.44074 31001 ft 394 kts 173°
2026-05-07 07:18 47.61103 8.44881 31001 ft 394 kts 174°
2026-05-07 07:18 47.55658 8.45685 31001 ft 393 kts 174°
2026-05-07 07:19 47.50224 8.46477 31020 ft 393 kts 174°
2026-05-07 07:19 47.44794 8.47276 31000 ft 393 kts 174°
2026-05-07 07:20 47.39360 8.48071 31006 ft 392 kts 175°
2026-05-07 07:20 47.33945 8.48859 31011 ft 393 kts 175°
2026-05-07 07:21 47.28522 8.49650 31007 ft 392 kts 175°
2026-05-07 07:21 47.23097 8.50443 31002 ft 391 kts 175°
2026-05-07 07:22 47.17722 8.51227 31013 ft 390 kts 175°
2026-05-07 07:22 47.12317 8.52010 30997 ft 389 kts 175°
2026-05-07 07:23 47.06953 8.52789 31010 ft 388 kts 175°
2026-05-07 07:23 47.01610 8.53562 30998 ft 387 kts 175°
2026-05-07 07:24 46.96242 8.54340 31015 ft 387 kts 175°
2026-05-07 07:24 46.90899 8.55109 30999 ft 388 kts 175°
2026-05-07 07:25 46.82864 8.56264 31003 ft 386 kts 176°
2026-05-07 07:26 46.77510 8.57033 30989 ft 386 kts 176°
2026-05-07 07:26 46.72172 8.57792 30991 ft 386 kts 176°
2026-05-07 07:27 46.66826 8.58553 30982 ft 386 kts 176°
2026-05-07 07:27 46.61500 8.59312 30978 ft 385 kts 176°
2026-05-07 07:28 46.56184 8.60068 30855 ft 387 kts 176°
2026-05-07 07:28 46.53512 8.60448 30511 ft 385 kts 176°
2026-05-07 07:28 46.50867 8.60825 30061 ft 385 kts 176°
2026-05-07 07:28 46.48199 8.61202 29578 ft 385 kts 176°
2026-05-07 07:29 46.45528 8.61579 29022 ft 385 kts 176°
2026-05-07 07:29 46.42893 8.61950 28478 ft 385 kts 176°
2026-05-07 07:29 46.40224 8.62325 27871 ft 386 kts 176°
2026-05-07 07:29 46.37559 8.62702 27180 ft 388 kts 176°
2026-05-07 07:30 46.34877 8.63078 26455 ft 391 kts 176°
2026-05-07 07:30 46.32149 8.63460 25690 ft 395 kts 176°
2026-05-07 07:30 46.29428 8.63843 24889 ft 398 kts 176°
2026-05-07 07:30 46.26689 8.64227 24095 ft 400 kts 175°
2026-05-07 07:31 46.23948 8.64613 23413 ft 398 kts 175°
2026-05-07 07:31 46.21184 8.65001 22772 ft 395 kts 176°
2026-05-07 07:31 46.18455 8.65384 22258 ft 390 kts 176°
2026-05-07 07:31 46.15796 8.65755 21796 ft 384 kts 176°
2026-05-07 07:32 46.13167 8.66132 21333 ft 379 kts 174°
2026-05-07 07:32 46.10616 8.66885 20869 ft 376 kts 165°
2026-05-07 07:32 46.08199 8.68229 20415 ft 372 kts 155°
2026-05-07 07:32 46.05922 8.69949 19974 ft 369 kts 153°
2026-05-07 07:33 46.03668 8.71737 19524 ft 365 kts 152°
2026-05-07 07:33 46.01462 8.73493 19075 ft 362 kts 152°
2026-05-07 07:33 45.99294 8.75209 18635 ft 360 kts 152°
2026-05-07 07:33 45.97098 8.76937 18188 ft 357 kts 152°
2026-05-07 07:34 45.94935 8.78635 17745 ft 355 kts 152°
2026-05-07 07:34 45.92764 8.80331 17294 ft 353 kts 152°
2026-05-07 07:34 45.90634 8.81991 16855 ft 351 kts 153°
2026-05-07 07:34 45.88512 8.83645 16415 ft 349 kts 153°
2026-05-07 07:35 45.86375 8.85308 15971 ft 347 kts 153°
2026-05-07 07:35 45.84276 8.86937 15575 ft 344 kts 153°
2026-05-07 07:35 45.82214 8.88539 15424 ft 331 kts 153°
2026-05-07 07:35 45.80214 8.90093 15321 ft 319 kts 153°
2026-05-07 07:36 45.78299 8.91579 15044 ft 313 kts 153°
2026-05-07 07:36 45.76392 8.93055 14661 ft 311 kts 153°
2026-05-07 07:36 45.74495 8.94523 14285 ft 309 kts 153°
2026-05-07 07:36 45.72621 8.95971 13914 ft 307 kts 153°
2026-05-07 07:37 45.70731 8.97430 13537 ft 305 kts 153°
2026-05-07 07:37 45.68879 8.98860 13164 ft 303 kts 153°
2026-05-07 07:37 45.67029 9.00286 12791 ft 301 kts 153°
2026-05-07 07:37 45.65194 9.01701 12424 ft 298 kts 153°
2026-05-07 07:38 45.63397 9.03084 12064 ft 296 kts 153°
2026-05-07 07:38 45.61588 9.04472 11697 ft 294 kts 152°
2026-05-07 07:38 45.59792 9.05849 11335 ft 292 kts 152°
2026-05-07 07:38 45.58006 9.07224 10972 ft 290 kts 152°
2026-05-07 07:39 45.56255 9.08569 10611 ft 288 kts 153°
2026-05-07 07:39 45.54500 9.09907 10315 ft 283 kts 152°
2026-05-07 07:39 45.52789 9.11213 10177 ft 274 kts 152°
2026-05-07 07:39 45.51100 9.12361 10016 ft 266 kts 161°
2026-05-07 07:40 45.49308 9.12936 9736 ft 262 kts 173°
2026-05-07 07:40 45.47499 9.13168 9407 ft 261 kts 176°
2026-05-07 07:40 45.45689 9.13347 9099 ft 259 kts 176°
2026-05-07 07:40 45.43905 9.13523 8798 ft 257 kts 176°
2026-05-07 07:41 45.42138 9.13707 8501 ft 255 kts 175°
2026-05-07 07:41 45.40375 9.13897 8201 ft 253 kts 175°
2026-05-07 07:41 45.38632 9.14088 7902 ft 251 kts 175°
2026-05-07 07:41 45.36882 9.14283 7600 ft 249 kts 175°
2026-05-07 07:42 45.35162 9.14475 7303 ft 248 kts 175°
2026-05-07 07:42 45.33461 9.14665 6920 ft 250 kts 175°
2026-05-07 07:42 45.31706 9.14862 6295 ft 251 kts 175°
2026-05-07 07:42 45.29986 9.15057 5670 ft 249 kts 175°
2026-05-07 07:43 45.28273 9.15248 5042 ft 246 kts 175°
2026-05-07 07:43 45.26616 9.15432 4653 ft 234 kts 175°
2026-05-07 07:43 45.25012 9.15611 4396 ft 229 kts 175°
2026-05-07 07:43 45.23463 9.16073 4126 ft 226 kts 150°
2026-05-07 07:44 45.22428 9.17672 3872 ft 224 kts 113°
2026-05-07 07:44 45.22223 9.19828 3633 ft 223 kts 85°
2026-05-07 07:44 45.22386 9.21993 3383 ft 221 kts 85°
2026-05-07 07:44 45.22539 9.24150 3136 ft 220 kts 85°
2026-05-07 07:45 45.22673 9.26270 3000 ft 212 kts 85°
2026-05-07 07:45 45.22926 9.28325 2984 ft 211 kts 64°
2026-05-07 07:45 45.23934 9.29748 2981 ft 211 kts 20°
2026-05-07 07:45 45.25387 9.29949 3006 ft 210 kts 352°
2026-05-07 07:46 45.26808 9.29687 3035 ft 199 kts 352°
2026-05-07 07:46 45.28109 9.29485 3104 ft 176 kts 353°
2026-05-07 07:46 45.29297 9.29335 3073 ft 171 kts 354°
2026-05-07 07:46 45.30480 9.29203 2871 ft 167 kts 355°
2026-05-07 07:47 45.31596 9.29085 2655 ft 156 kts 355°
2026-05-07 07:47 45.32653 9.28975 2446 ft 153 kts 355°
2026-05-07 07:47 45.33715 9.28864 2245 ft 152 kts 354°
2026-05-07 07:47 45.34735 9.28757 2046 ft 141 kts 354°
2026-05-07 07:48 45.35672 9.28658 1843 ft 130 kts 354°
2026-05-07 07:48 45.36565 9.28562 1682 ft 129 kts 354°
2026-05-07 07:48 45.37466 9.28465 1521 ft 128 kts 354°
2026-05-07 07:48 45.38349 9.28370 1357 ft 127 kts 354°
2026-05-07 07:49 45.39226 9.28276 1186 ft 127 kts 354°
2026-05-07 07:49 45.40113 9.28181 1015 ft 127 kts 354°
2026-05-07 07:49 45.40989 9.28086 844 ft 126 kts 354°
2026-05-07 07:49 45.41859 9.27993 674 ft 127 kts 354°
2026-05-07 07:50 45.42740 9.27895 503 ft 127 kts 354°
2026-05-07 07:50 45.43621 9.27807 361 ft 126 kts 351°
2026-05-07 07:50 45.44405 9.27719 346 ft 91 kts 355°
2026-05-07 07:50 45.44868 9.27670 356 ft 45 kts 355°
2026-05-07 07:51 45.45173 9.27635 353 ft 42 kts 354°
2026-05-07 07:51 45.45400 9.27722 350 ft 23 kts 29°
2026-05-07 07:51 45.45504 9.27817 350 ft 17 kts 358°
2026-05-07 07:51 45.45643 9.27816 352 ft 21 kts
2026-05-07 07:52 45.45787 9.27819 355 ft 20 kts
2026-05-07 07:52 45.45878 9.27823 358 ft 7 kts
2026-05-07 07:52 45.45919 9.27846 360 ft 5 kts
2026-05-07 07:52 45.45953 9.27849 362 ft 4 kts
2026-05-07 07:53 45.45978 9.27849 363 ft 2 kts
2026-05-07 07:53 45.45983 9.27849 363 ft 0 kts
2026-05-07 07:53 45.45984 9.27849 363 ft 0 kts